Waarnemingen

Advertentie
Mijn weer
Hoburg A, Zweden (2679): temperatuur & dauwpunt: 09.08.2018 04:00:00 - 15.08.2018 04:00:00 (CEST)Hoburg A, Zweden (2679): windsnelheid & windstoten: 09.08.2018 04:00:00 - 15.08.2018 04:00:00 (CEST)Hoburg A, Zweden (2679): windrichting: 09.08.2018 04:00:00 - 15.08.2018 04:00:00 (CEST)Hoburg A, Zweden (2679): luchtdruk: 09.08.2018 04:00:00 - 15.08.2018 04:00:00 (CEST)Hoburg A, Zweden (2679): zicht: 09.08.2018 04:00:00 - 15.08.2018 04:00:00 (CEST)Hoburg A, Zweden (2679): neerslag: 09.08.2018 04:00:00 - 15.08.2018 04:00:00 (CEST)
Datum & Tijd tt [°C] td [°C] ff [km/u] ff [kn] fx [km/u] fx [kn] dd ppp [hPa] vv [km] rr [mm]
15.08.2018 04:00:00 18,1 16,4 19 10 28 15 NW 1005,9 21 0,0
15.08.2018 03:00:00 18,1 17,3 14 8 23 12 WNW 1005,8 6 0,0
15.08.2018 02:00:00 17,9 17,1 15 8 23 12 W 1005,7 5 0,0
15.08.2018 01:00:00 17,7 16,7 11 6 26 14 WZW 1005,6 9 0,0
15.08.2018 00:00:00 17,9 16,9 14 8 28 15 WZW 1005,5 6 0,0
14.08.2018 23:00:00 18,1 16,9 20 11 28 15 ZW 1005,5 7 0,0
14.08.2018 22:00:00 18,1 16,9 19 10 28 15 ZW 1005,7 8 0,0
14.08.2018 21:00:00 18,2 16,9 17 9 27 15 ZW 1005,9 7 0,0
14.08.2018 20:00:00 18,5 16,8 19 10 27 15 ZW 1006,0 7 0,0
14.08.2018 19:00:00 19,1 17,2 18 10 30 16 ZZW 1005,6 13 0,0
14.08.2018 18:00:00 18,6 18,1 18 10 30 16 Z 1006,0 6 0,1
14.08.2018 17:00:00 18,2 17,6 21 12 29 16 Z 1006,2 3,6 1,2
14.08.2018 16:00:00 17,8 17,2 9 5 31 17 ZZO 1006,6 4,4 1,0
14.08.2018 15:00:00 16,3 15,3 18 10 33 18 O 1007,1 18 0,2
14.08.2018 14:00:00 16,2 15,7 25 14 33 18 OZO 1007,6 3,1 3,1
14.08.2018 13:00:00 16,7 15,9 19 10 36 20 OZO 1007,7 6 1,5
14.08.2018 12:00:00 16,9 15,6 22 12 36 20 OZO 1008,1 15 0,0
14.08.2018 11:00:00 17,8 16,0 23 12 33 18 OZO 1008,4 50 0,0
14.08.2018 10:00:00 17,1 15,6 22 12 33 18 OZO 1008,8 33 0,1
14.08.2018 09:00:00 17,2 15,2 19 11 32 17 OZO 1008,9 37 0,0
14.08.2018 08:00:00 17,4 14,9 23 12 32 17 O 1008,5 50 0,0
14.08.2018 07:00:00 17,1 15,1 16 9 23 12 OZO 1008,9 50 0,0
14.08.2018 06:00:00 16,3 14,7 16 9 21 12 OZO 1009,2 50 0,0
14.08.2018 05:00:00 16,4 14,9 14 7 19 11 OZO 1009,6 50 0,0
14.08.2018 04:00:00 16,3 15,0 11 6 17 9 OZO 1010,0 50 0,0
14.08.2018 03:00:00 15,9 14,9 9 5 16 9 OZO 1010,3 44 0,0
14.08.2018 02:00:00 15,8 14,5 9 5 18 10 OZO 1010,4 45 0,0
14.08.2018 01:00:00 16,3 14,3 14 7 18 10 ZO 1010,5 50 0,0
14.08.2018 00:00:00 14,8 13,2 10 5 11 6 OZO 1010,4 50 0,0
13.08.2018 23:00:00 14,5 12,7 8 4 10 6 O 1010,6 50 0,0
13.08.2018 22:00:00 14,9 12,6 8 5 10 5 OZO 1010,7 50 0,0
13.08.2018 21:00:00 15,1 11,7 8 4 13 7 OZO 1010,8 50 0,0
13.08.2018 20:00:00 16,2 11,4 6 3 14 8 OZO 1010,7 50 0,0
13.08.2018 19:00:00 17,3 12,0 11 6 15 8 ZZO 1011,0 50 0,0
13.08.2018 18:00:00 18,4 11,5 11 6 16 9 ZZO 1011,0 50 0,0
13.08.2018 17:00:00 18,8 11,6 11 6 19 10 ZZO 1011,3 50 0,0
13.08.2018 16:00:00 19,0 10,5 11 6 19 10 ZZO 1011,3 50 0,0
13.08.2018 15:00:00 19,7 10,1 11 6 19 11 Z 1011,3 46 0,0
13.08.2018 14:00:00 18,7 9,5 13 7 21 11 Z 1011,4 44 0,0
13.08.2018 13:00:00 18,9 9,4 13 7 21 11 ZZW 1011,3 50 0,0
13.08.2018 12:00:00 17,9 8,7 11 6 20 11 WNW 1011,4 50 0,0
13.08.2018 11:00:00 18,4 8,9 10 5 18 10 WNW 1011,3 39 0,0
13.08.2018 10:00:00 17,8 8,6 9 5 20 11 WNW 1011,1 50 0,0
13.08.2018 09:00:00 17,6 8,5 10 5 20 11 NW 1010,9 50 0,0
13.08.2018 08:00:00 17,3 9,0 11 6 18 10 WNW 1010,9 50 0,0
13.08.2018 07:00:00 15,7 8,7 10 5 16 9 NW 1010,7 50 0,0
13.08.2018 06:00:00 15,5 8,5 12 6 25 14 NW 1010,6 50 0,0
13.08.2018 05:00:00 14,9 8,6 13 7 26 14 NW 1010,5 50 0,0
13.08.2018 04:00:00 15,1 8,8 16 8 30 16 NW 1010,3 50 0,0
13.08.2018 03:00:00 15,8 9,5 20 11 36 20 NW 1010,3 50 0,0
13.08.2018 02:00:00 16,5 9,2 22 12 44 24 NW 1010,2 50 0,0
13.08.2018 01:00:00 16,6 10,4 29 16 47 25 WNW 1010,1 50 0,0
13.08.2018 00:00:00 17,1 9,5 34 18 47 26 W 1010,0 50 0,0
12.08.2018 23:00:00 17,6 9,2 34 18 50 27 W 1009,8 50 0,0
12.08.2018 22:00:00 17,9 8,5 34 18 50 27 W 1009,8 50 0,0
12.08.2018 21:00:00 18,1 8,4 34 19 54 29 W 1009,6 50 0,0
12.08.2018 20:00:00 18,6 8,0 39 21 59 32 W 1009,4 50 0,0
12.08.2018 19:00:00 18,6 8,0 44 24 59 32 W 1009,2 48 0,0
12.08.2018 18:00:00 19,9 7,6 43 23 58 32 W 1009,1 50 0,0
12.08.2018 17:00:00 20,5 6,4 39 21 56 30 W 1009,1 50 0,0
12.08.2018 16:00:00 21,0 8,3 37 20 58 31 W 1009,0 42 0,0
12.08.2018 15:00:00 20,6 8,2 40 21 58 31 W 1009,1 42 0,0
12.08.2018 14:00:00 20,1 8,7 40 22 61 33 W 1009,0 40 0,0
12.08.2018 13:00:00 19,8 9,9 42 23 64 34 W 1008,9 39 0,0
12.08.2018 12:00:00 18,6 10,7 41 22 68 37 W 1008,5 43 0,0
12.08.2018 11:00:00 18,4 11,9 45 24 68 37 W 1008,3 47 0,0
12.08.2018 10:00:00 17,5 10,8 44 24 62 34 W 1007,9 50 0,0
12.08.2018 09:00:00 16,4 10,9 46 25 62 33 W 1007,4 50 0,0
12.08.2018 08:00:00 15,2 11,8 35 19 49 27 W 1007,3 50 0,0
12.08.2018 07:00:00 14,8 11,4 30 16 43 23 W 1007,2 50 0,0
12.08.2018 06:00:00 14,9 10,5 26 14 46 25 W 1006,9 50 0,0
12.08.2018 05:00:00 15,0 10,4 28 15 51 27 W 1006,8 50 0,0
12.08.2018 04:00:00 15,3 9,9 37 20 51 27 W 1006,9 50 0,0
12.08.2018 03:00:00 15,7 10,9 18 10 29 16 W 1007,0 50 0,0
12.08.2018 02:00:00 14,7 12,0 16 9 58 31 ZW 1007,4 28 0,2
12.08.2018 01:00:00 14,8 11,2 13 7 58 31 WZW 1008,1 50 0,0
12.08.2018 00:00:00 16,1 11,3 19 10 30 16 Z 1008,8 50 0,0
11.08.2018 23:00:00 14,9 12,2 16 9 22 12 Z 1010,2 50 0,0
11.08.2018 22:00:00 14,1 11,8 10 5 61 33 ZZO 1011,3 50 0,2
11.08.2018 21:00:00 14,0 11,5 7 4 61 33 W 1012,3 13 1,8
11.08.2018 20:00:00 16,8 13,7 21 11 49 26 Z 1012,7 50 0,0
11.08.2018 19:00:00 15,2 13,7 27 14 49 26 WZW 1013,3 4,5 2,7
11.08.2018 18:00:00 20,1 12,6 26 14 35 19 Z 1013,6 50 0,0
11.08.2018 17:00:00 21,7 12,3 26 14 34 18 Z 1014,2 50 0,0
11.08.2018 16:00:00 22,3 13,1 19 11 33 18 ZZO 1015,0 42 0,0
11.08.2018 15:00:00 20,6 13,3 23 12 32 18 ZO 1015,9 40 0,0
11.08.2018 14:00:00 21,2 13,1 20 11 28 15 ZO 1016,9 44 0,0
11.08.2018 13:00:00 20,6 11,2 20 11 26 14 ZO 1017,5 50 0,0
11.08.2018 12:00:00 18,3 11,6 16 9 25 13 ZZO 1018,3 37 0,1
11.08.2018 11:00:00 20,8 12,2 14 7 24 13 ZW 1018,6 50 0,0
11.08.2018 10:00:00 20,0 11,0 14 7 24 13 WZW 1018,7 34 0,0
11.08.2018 09:00:00 19,9 12,2 16 8 28 15 WZW 1018,9 50 0,0
11.08.2018 08:00:00 19,4 12,4 16 9 36 20 W 1018,9 50 0,0
11.08.2018 07:00:00 18,2 11,5 21 12 36 20 W 1018,9 50 0,0
11.08.2018 06:00:00 18,4 10,5 24 13 37 20 W 1019,0 50 0,0
11.08.2018 05:00:00 18,0 10,1 24 13 37 20 W 1018,9 50 0,0
11.08.2018 04:00:00 18,6 11,4 22 12 31 17 WZW 1018,8 50 0,0
11.08.2018 03:00:00 18,8 9,8 25 13 39 21 W 1018,9 50 0,0
11.08.2018 02:00:00 18,9 9,1 23 12 49 26 W 1018,7 50 0,0
11.08.2018 01:00:00 19,0 8,6 29 16 50 27 W 1019,0 43 0,0
11.08.2018 00:00:00 19,5 8,5 38 21 50 27 W 1018,5 50 0,0
10.08.2018 23:00:00 20,0 9,0 32 17 48 26 W 1018,2 50 0,0
10.08.2018 22:00:00 20,3 10,4 31 17 48 26 W 1017,6 50 0,0
10.08.2018 21:00:00 20,8 12,2 23 12 56 30 W 1017,0 50 0,0
10.08.2018 20:00:00 21,0 14,9 35 19 58 32 WZW 1016,0 48 0,0
10.08.2018 19:00:00 21,6 15,4 39 21 58 32 WZW 1015,1 42 0,0
10.08.2018 18:00:00 21,1 16,1 37 20 58 31 ZW 1015,1 38 0,0
10.08.2018 17:00:00 22,1 16,1 38 20 58 31 ZW 1015,2 42 0,0
10.08.2018 16:00:00 22,7 16,0 40 22 59 32 ZW 1014,8 44 0,0
10.08.2018 15:00:00 23,2 16,5 39 21 59 32 ZW 1014,3 34 0,0
10.08.2018 14:00:00 23,8 16,3 37 20 57 31 ZW 1013,9 36 0,0
10.08.2018 13:00:00 23,7 17,2 40 21 57 31 ZW 1013,2 41 0,0
10.08.2018 12:00:00 24,3 18,2 37 20 51 27 ZW 1012,9 39 0,0
10.08.2018 11:00:00 23,7 20,2 25 14 36 19 ZW 1012,1 23 0,0
10.08.2018 10:00:00 24,1 20,4 22 12 33 18 Z 1011,6 14 0,0
10.08.2018 09:00:00 22,9 20,1 23 13 38 20 Z 1010,8 13 0,0
10.08.2018 08:00:00 21,1 19,7 23 13 40 22 ZZO 1010,3 8 0,0
10.08.2018 07:00:00 20,6 19,4 21 12 40 22 Z 1010,9 5 1,8
10.08.2018 06:00:00 22,7 19,5 29 16 40 22 Z 1011,0 27 0,0
10.08.2018 05:00:00 22,6 19,0 29 16 40 22 ZZO 1010,1 36 0,0
10.08.2018 04:00:00 22,6 19,6 24 13 34 19 ZZO 1010,7 28 0,0
10.08.2018 03:00:00 22,4 19,8 22 12 28 15 ZO 1011,5 36 0,0
10.08.2018 02:00:00 21,9 19,8 18 10 22 12 OZO 1012,3 42 0,0
10.08.2018 01:00:00 21,2 18,9 14 7 18 10 O 1013,5 29 0,0
10.08.2018 00:00:00 20,9 19,6 12 6 16 9 OZO 1014,1 13 0,0
09.08.2018 23:00:00 20,9 19,9 9 5 16 9 OZO 1014,4 6 0,0
09.08.2018 22:00:00 21,4 20,2 11 6 19 11 ZO 1014,8 7 0,0
09.08.2018 21:00:00 21,5 20,5 13 7 22 12 ZZO 1015,2 6 0,0
09.08.2018 20:00:00 22,3 20,2 14 7 24 13 ZZO 1015,5 15 0,0
09.08.2018 19:00:00 23,2 20,2 16 9 24 13 Z 1015,6 20 0,0
09.08.2018 18:00:00 24,5 20,2 16 8 24 13 Z 1015,6 28 0,0
09.08.2018 17:00:00 25,4 19,8 16 9 26 14 ZZO 1015,8 33 0,0
09.08.2018 16:00:00 24,9 19,9 16 9 29 15 ZZW 1016,0 33 0,0
09.08.2018 15:00:00 25,2 21,1 20 11 29 15 Z 1016,3 22 0,0
09.08.2018 14:00:00 25,9 20,9 16 8 21 11 Z 1016,2 26 0,0
09.08.2018 13:00:00 24,2 20,5 13 7 23 13 ZZW 1016,1 24 0,0
09.08.2018 12:00:00 24,0 20,3 14 8 25 13 ZZW 1015,9 23 0,0
09.08.2018 11:00:00 24,6 20,7 18 10 25 13 ZZW 1015,6 23 0,0
09.08.2018 10:00:00 24,9 20,4 10 5 19 11 ZW 1015,1 26 0,0
09.08.2018 09:00:00 23,1 20,2 8 5 19 11 ZW 1014,5 25 0,0
09.08.2018 08:00:00 23,6 20,3 11 6 20 11 WZW 1014,0 23 0,0
09.08.2018 07:00:00 22,4 20,1 10 6 27 15 ZZW 1013,7 26 0,0
09.08.2018 06:00:00 21,9 19,6 16 9 27 15 ZZW 1013,6 27 0,0
09.08.2018 05:00:00 21,7 19,4 15 8 35 19 Z 1012,9 12 0,0
09.08.2018 04:00:00 22,2 19,2 20 11 36 19 Z 1012,8 31 0,0

tt = temperatuur
td = dauwpunt
ff = windsnelheid
fx = windstoten
dd = windrichting
ppp = luchtdruk
vv = zicht
rr = neerslag

Weerstations in de omgeving